TimeCST,TemperatureF,Dew PointF,Humidity,Sea Level PressureIn,VisibilityMPH,Wind Direction,Wind SpeedMPH,Gust SpeedMPH,PrecipitationIn,Events,Conditions,WindDirDegrees,DateUTC
12:53 AM,33.1,28.0,82,29.99,10.0,Calm,Calm,-,N/A,,Clear,0,2013-02-14 06:53:00
1:53 AM,34.0,28.9,82,29.99,10.0,SW,3.5,-,N/A,,Clear,220,2013-02-14 07:53:00
2:53 AM,33.1,27.0,78,29.99,10.0,SSW,3.5,-,N/A,,Clear,210,2013-02-14 08:53:00
3:53 AM,33.1,27.0,78,29.97,10.0,SW,4.6,-,N/A,,Clear,230,2013-02-14 09:53:00
4:53 AM,32.0,26.1,79,29.99,10.0,Calm,Calm,-,N/A,,Clear,0,2013-02-14 10:53:00
5:53 AM,30.9,27.0,85,30.00,10.0,WSW,3.5,-,N/A,,Clear,240,2013-02-14 11:53:00
6:53 AM,28.9,26.1,89,30.02,10.0,Calm,Calm,-,N/A,,Clear,0,2013-02-14 12:53:00
7:53 AM,28.9,25.0,85,30.05,8.0,Calm,Calm,-,N/A,,Clear,0,2013-02-14 13:53:00
8:53 AM,35.1,28.0,76,30.08,10.0,North,3.5,-,N/A,,Clear,350,2013-02-14 14:53:00
9:21 AM,39.2,30.2,70,30.07,10.0,North,6.9,-,N/A,,Partly Cloudy,10,2013-02-14 15:21:00
9:53 AM,44.1,32.0,63,30.09,10.0,North,10.4,-,N/A,,Clear,360,2013-02-14 15:53:00
10:53 AM,50.0,34.0,54,30.09,10.0,NNE,10.4,-,N/A,,Clear,20,2013-02-14 16:53:00
11:53 AM,53.1,30.9,43,30.09,10.0,NNE,10.4,-,N/A,,Clear,30,2013-02-14 17:53:00
12:53 PM,55.0,32.0,42,30.09,10.0,North,9.2,-,N/A,,Clear,10,2013-02-14 18:53:00
1:53 PM,55.0,30.0,38,30.07,10.0,NNE,11.5,-,N/A,,Clear,20,2013-02-14 19:53:00
2:53 PM,53.1,30.9,43,30.07,10.0,North,10.4,-,N/A,,Clear,360,2013-02-14 20:53:00
3:53 PM,53.1,30.9,43,30.09,10.0,NNE,10.4,-,N/A,,Partly Cloudy,20,2013-02-14 21:53:00
4:53 PM,52.0,30.9,45,30.10,10.0,North,11.5,-,N/A,,Mostly Cloudy,360,2013-02-14 22:53:00
5:53 PM,50.0,32.0,50,30.13,10.0,North,9.2,-,N/A,,Overcast,350,2013-02-14 23:53:00
6:53 PM,48.0,32.0,54,30.17,10.0,NNW,8.1,-,N/A,,Overcast,340,2013-02-15 00:53:00
7:53 PM,44.1,33.1,65,30.22,10.0,NNW,9.2,23.0,0.00,Rain,Light Rain,340,2013-02-15 01:53:00
8:53 PM,43.0,34.0,71,30.24,10.0,NNW,10.4,-,0.00,Rain,Light Rain,340,2013-02-15 02:53:00
9:53 PM,39.9,34.0,79,30.23,10.0,WNW,3.5,-,0.00,,Overcast,290,2013-02-15 03:53:00
10:53 PM,39.0,32.0,76,30.25,10.0,NW,6.9,-,N/A,,Partly Cloudy,310,2013-02-15 04:53:00
11:53 PM,37.9,30.0,73,30.27,10.0,North,11.5,-,N/A,,Partly Cloudy,350,2013-02-15 05:53:00